Date String (YYYY-MM-DD hh:mm:ss) UTC,Instrument flags,absolute air pressure of the measurement (hPa),sample flow rate (lpm),inlet stack bypass flow (lpm),air temperature of the measurement (°C),ambient temperature measured by the external sensor (°C),aerosol sample conditioner tube jacket temperature (°C),OPC LED temperature (°C),internal box temperature (°C),relative humidity of the measurement (%),span deviation,mass concentration of particles derived from Lorenz-Mie calculation of OPC scattering (μg/m³),mass concentration of particles derived from Lorenz-Mie calculation of OPC scattering (μg/m³),mass concentration of particles derived from Lorenz-Mie calculation of OPC scattering (μg/m³)
DateTimeUTC,F1_M11,P_M11,Q1_M11,Q2_M11,T1_M11,T2_M11,T3_M11,T4_M11,T5_M11,U1_M11,ZSPAN_M11,X0_M11,X2_M11,X1_M11
2024-05-17 03:00:00,SystemResetWarning,0823.7,5.00,000.00,024.5,023.9,000.0,032.4,026.4,021.1,0000.0,0009.66,0003.69,0002.92
2024-05-17 03:01:00,SystemResetWarning,0823.7,5.00,000.00,024.5,024.0,000.0,032.4,026.5,021.0,0000.0,0009.84,0003.70,0002.93
2024-05-17 03:02:00,SystemResetWarning,0823.7,4.99,000.00,024.6,024.1,000.0,032.5,026.6,021.0,0000.0,0010.19,0003.67,0002.93
2024-05-17 03:03:00,SystemResetWarning,0823.7,5.00,000.00,024.7,024.2,000.0,032.5,026.6,020.3,0000.0,0010.31,0003.64,0002.93
2024-05-17 03:04:00,SystemResetWarning,0823.7,5.00,000.00,024.7,024.2,000.0,032.6,026.6,020.1,0000.0,0011.33,0003.63,0002.94
2024-05-17 03:05:00,SystemResetWarning,0823.7,4.99,000.00,024.5,022.6,000.0,032.7,025.7,020.2,0000.0,0011.51,0003.63,0002.94
2024-05-17 03:06:00,SystemResetWarning,0823.7,5.02,000.00,024.2,021.6,000.0,032.7,025.1,019.6,0000.0,0010.64,0003.57,0002.94
2024-05-17 03:07:00,SystemResetWarning,0823.7,5.00,000.00,024.1,021.8,000.0,032.6,025.1,019.4,0000.0,0010.45,0003.53,0002.92
2024-05-17 03:08:00,SystemResetWarning,0823.8,4.99,000.00,024.0,022.1,000.0,032.5,025.3,019.1,0000.0,0009.91,0003.49,0002.91
2024-05-17 03:09:00,SystemResetWarning,0823.8,4.99,000.00,024.1,022.5,000.0,032.5,025.6,021.6,0000.0,0009.62,0003.45,0002.90
2024-05-17 03:10:00,SystemResetWarning,0823.8,5.01,000.00,024.1,022.8,000.0,032.4,025.8,022.1,0000.0,0009.42,0003.43,0002.92
2024-05-17 03:11:00,SystemResetWarning,0823.8,5.00,000.00,024.2,023.1,000.0,032.4,026.0,022.2,0000.0,0009.84,0003.44,0002.93
2024-05-17 03:12:00,SystemResetWarning,0823.8,5.00,000.00,024.3,023.3,000.0,032.4,026.1,021.6,0000.0,0009.59,0003.44,0002.92
2024-05-17 03:13:00,SystemResetWarning,0823.8,5.00,000.00,024.3,023.5,000.0,032.4,026.2,021.6,0000.0,0009.18,0003.47,0002.93
2024-05-17 03:14:00,SystemResetWarning,0823.8,5.00,000.00,024.4,023.7,000.0,032.4,026.3,022.8,0000.0,0008.97,0003.46,0002.93
2024-05-17 03:15:00,SystemResetWarning,0823.8,5.00,000.00,024.5,023.9,000.0,032.5,026.4,022.2,0000.0,0007.96,0003.47,0002.92
2024-05-17 03:16:00,SystemResetWarning,0823.8,5.00,000.00,024.5,024.0,000.0,032.5,026.5,021.8,0000.0,0007.80,0003.46,0002.92
2024-05-17 03:17:00,SystemResetWarning,0823.8,5.00,000.00,024.6,024.1,000.0,032.5,026.6,021.6,0000.0,0008.00,0003.47,0002.93
2024-05-17 03:18:00,SystemResetWarning,0823.8,5.00,000.00,024.7,024.2,000.0,032.6,026.6,021.5,0000.0,0008.01,0003.49,0002.94
2024-05-17 03:19:00,SystemResetWarning,0823.8,5.00,000.00,024.7,024.3,000.0,032.6,026.7,020.9,0000.0,0008.08,0003.51,0002.95
2024-05-17 03:20:00,SystemResetWarning,0823.8,5.00,000.00,024.8,024.3,000.0,032.7,026.6,020.3,0000.0,0008.88,0003.57,0002.97
2024-05-17 03:21:00,SystemResetWarning,0823.8,4.98,000.00,024.6,022.6,000.0,032.8,025.7,020.4,0000.0,0009.45,0003.58,0002.96
2024-05-17 03:22:00,SystemResetWarning,0823.7,5.02,000.00,024.2,021.6,000.0,032.8,025.1,020.3,0000.0,0009.25,0003.59,0002.97
2024-05-17 03:23:00,SystemResetWarning,0823.8,5.00,000.00,024.1,021.8,000.0,032.7,025.1,020.4,0000.0,0009.30,0003.60,0002.98
2024-05-17 03:24:00,SystemResetWarning,0823.8,4.99,000.00,024.1,022.1,000.0,032.6,025.4,020.4,0000.0,0009.75,0003.58,0002.97
2024-05-17 03:25:00,SystemResetWarning,0823.8,4.99,000.00,024.1,022.5,000.0,032.5,025.6,020.4,0000.0,0010.44,0003.60,0002.97
2024-05-17 03:26:00,SystemResetWarning,0823.8,5.00,000.00,024.2,022.8,000.0,032.5,025.8,020.2,0000.0,0011.24,0003.59,0002.97
2024-05-17 03:27:00,SystemResetWarning,0823.8,5.01,000.00,024.2,023.1,000.0,032.5,026.0,020.0,0000.0,0011.50,0003.62,0002.96
2024-05-17 03:28:00,SystemResetWarning,0823.8,5.01,000.00,024.3,023.3,000.0,032.5,026.1,020.0,0000.0,0011.67,0003.63,0002.96
2024-05-17 03:29:00,SystemResetWarning,0823.8,5.00,000.00,024.3,023.5,000.0,032.5,026.2,019.9,0000.0,0012.38,0003.60,0002.95
2024-05-17 03:30:00,SystemResetWarning,0823.8,4.99,000.00,024.4,023.7,000.0,032.5,026.3,020.1,0000.0,0012.32,0003.57,0002.94
2024-05-17 03:31:00,SystemResetWarning,0823.8,4.99,000.00,024.5,023.8,000.0,032.5,026.4,020.9,0000.0,0011.60,0003.53,0002.95
2024-05-17 03:32:00,SystemResetWarning,0823.8,5.00,000.00,024.5,023.9,000.0,032.5,026.4,020.7,0000.0,0011.11,0003.51,0002.95
2024-05-17 03:33:00,SystemResetWarning,0823.8,5.00,000.00,024.6,024.1,000.0,032.5,026.5,020.7,0000.0,0010.65,0003.49,0002.94
2024-05-17 03:34:00,SystemResetWarning,0823.9,5.00,000.00,024.7,024.2,000.0,032.6,026.6,020.7,0000.0,0010.13,0003.44,0002.93
2024-05-17 03:35:00,SystemResetWarning,0823.9,5.01,000.00,024.7,024.2,000.0,032.6,026.6,020.6,0000.0,0009.49,0003.41,0002.93
2024-05-17 03:36:00,SystemResetWarning,0823.9,5.00,000.00,024.8,024.2,000.0,032.7,026.6,020.3,0000.0,0008.97,0003.40,0002.93
2024-05-17 03:37:00,SystemResetWarning,0823.8,4.98,000.00,024.6,022.5,000.0,032.8,025.7,020.4,0000.0,0008.15,0003.38,0002.93
2024-05-17 03:38:00,SystemResetWarning,0823.8,5.02,000.00,024.2,021.4,000.0,032.8,025.0,020.6,0000.0,0007.59,0003.37,0002.94
2024-05-17 03:39:00,SystemResetWarning,0823.8,5.00,000.00,024.1,021.6,000.0,032.7,025.1,021.2,0000.0,0007.53,0003.40,0002.97
2024-05-17 03:40:00,SystemResetWarning,0823.8,5.00,000.00,024.0,022.0,000.0,032.6,025.3,021.5,0000.0,0006.05,0003.45,0002.99
2024-05-17 03:41:00,SystemResetWarning,0823.8,5.00,000.00,024.1,022.4,000.0,032.5,025.5,021.4,0000.0,0006.16,0003.48,0003.01
2024-05-17 03:42:00,SystemResetWarning,0823.9,5.00,000.00,024.1,022.7,000.0,032.5,025.7,021.2,0000.0,0006.24,0003.49,0003.02
2024-05-17 03:43:00,SystemResetWarning,0823.9,5.00,000.00,024.2,023.0,000.0,032.4,025.9,021.1,0000.0,0005.94,0003.48,0003.03
2024-05-17 03:44:00,SystemResetWarning,0823.9,5.00,000.00,024.2,023.2,000.0,032.4,026.0,020.4,0000.0,0006.29,0003.51,0003.04
2024-05-17 03:45:00,SystemResetWarning,0823.9,4.98,000.00,024.3,023.4,000.0,032.4,026.1,020.2,0000.0,0006.47,0003.55,0003.06
2024-05-17 03:46:00,SystemResetWarning,0824.0,5.00,000.00,024.4,023.6,000.0,032.4,026.3,020.8,0000.0,0006.57,0003.56,0003.05
2024-05-17 03:47:00,SystemResetWarning,0823.9,5.00,000.00,024.4,023.8,000.0,032.5,026.3,021.1,0000.0,0006.68,0003.57,0003.06
2024-05-17 03:48:00,SystemResetWarning,0823.9,5.01,000.00,024.5,023.9,000.0,032.5,026.4,021.2,0000.0,0006.69,0003.57,0003.07
2024-05-17 03:49:00,SystemResetWarning,0824.0,4.99,000.00,024.5,024.0,000.0,032.5,026.5,021.3,0000.0,0006.80,0003.58,0003.07
2024-05-17 03:50:00,SystemResetWarning,0824.0,4.99,000.00,024.6,024.1,000.0,032.5,026.5,021.4,0000.0,0006.88,0003.54,0003.06
2024-05-17 03:51:00,SystemResetWarning,0824.0,5.00,000.00,024.7,024.2,000.0,032.6,026.6,021.2,0000.0,0007.53,0003.50,0003.05
2024-05-17 03:52:00,SystemResetWarning,0824.0,5.01,000.00,024.7,024.3,000.0,032.6,026.6,020.9,0000.0,0007.97,0003.50,0003.04
2024-05-17 03:53:00,SystemResetWarning,0824.0,5.01,000.00,024.8,024.3,000.0,032.7,026.7,020.7,0000.0,0008.68,0003.52,0003.04
2024-05-17 03:54:00,SystemResetWarning,0824.0,5.01,000.00,024.8,024.4,000.0,032.7,026.8,020.2,0000.0,0008.86,0003.56,0003.04
2024-05-17 03:55:00,SystemResetWarning,0823.9,5.00,000.00,024.9,024.5,000.0,032.7,026.8,020.0,0000.0,0008.84,0003.55,0003.03
2024-05-17 03:56:00,SystemResetWarning,0824.0,4.99,000.00,024.9,024.1,000.0,032.8,026.6,019.9,0000.0,0008.78,0003.52,0003.01
2024-05-17 03:57:00,SystemResetWarning,0824.0,4.99,000.00,024.6,022.1,000.0,032.9,025.5,020.3,0000.0,0008.77,0003.51,0003.00
2024-05-17 03:58:00,SystemResetWarning,0823.9,5.02,000.00,024.3,021.5,000.0,032.9,025.1,020.8,0000.0,0008.71,0003.51,0003.00
2024-05-17 03:59:00,SystemResetWarning,0824.0,5.00,000.00,024.2,021.8,000.0,032.8,025.2,021.0,0000.0,0009.23,0003.52,0003.00
